When you browse on this site, cookies collect data to enhance your experience and personalize the content and advertising you see.
Visit our Privacy Policy to learn more. By continuing to use the site, you agree to this use of cookies and data.
  • In Latvia
  • List of Countries
  • For 7 days
  • Water Temperature
  • Weather Map
  • Weather Widgets
  • user-avatar
    Login

    Hourly Weather Starokovylnyy

    Today, 24 August, Saturday

    Time Temperature Precipitation Wind Pressure Humidity
    00:00 +29°C° 0 mm 5 mps 760 mmHg 46%
    01:00 +29°C° 0 mm 5 mps 760 mmHg 46%
    02:00 +28°C° 0 mm 5 mps 760 mmHg 47%
    03:00 +27°C° 0 mm 5 mps 760 mmHg 50%
    04:00 +27°C° 0 mm 5 mps 760 mmHg 52%
    05:00 +27°C° 0 mm 5 mps 760 mmHg 54%
    06:00 +26°C° 0 mm 6 mps 760 mmHg 56%
    07:00 +28°C° 0 mm 6 mps 761 mmHg 51%
    08:00 +30°C° 0 mm 6 mps 761 mmHg 46%
    09:00 +33°C° 0 mm 6 mps 761 mmHg 40%
    10:00 +34°C° 0 mm 6 mps 761 mmHg 36%
    11:00 +36°C° 0 mm 6 mps 761 mmHg 32%
    12:00 +39°C° 0 mm 6 mps 760 mmHg 28%
    13:00 +39°C° 0 mm 6 mps 760 mmHg 27%
    14:00 +39°C° 0 mm 6 mps 760 mmHg 27%
    15:00 +40°C° 0 mm 6 mps 760 mmHg 27%
    16:00 +39°C° 0 mm 6 mps 760 mmHg 29%
    17:00 +38°C° 0 mm 6 mps 760 mmHg 32%
    18:00 +36°C° 0 mm 6 mps 760 mmHg 34%
    19:00 +35°C° 0.2 mm 6 mps 760 mmHg 38%
    20:00 +33°C° 0.2 mm 6 mps 760 mmHg 43%
    21:00 +30°C° 0.2 mm 6 mps 760 mmHg 47%
    22:00 +29°C° 0.3 mm 5 mps 760 mmHg 50%
    23:00 +28°C° 0.3 mm 5 mps 760 mmHg 53%

    Tomorrow, 25 August, Sunday

    Time Temperature Precipitation Wind Pressure Humidity
    00:00 +27°C° 0.3 mm 4 mps 760 mmHg 57%
    01:00 +26°C° 0.6 mm 4 mps 760 mmHg 59%
    02:00 +26°C° 0.6 mm 4 mps 760 mmHg 62%
    03:00 +25°C° 0.6 mm 4 mps 761 mmHg 65%
    04:00 +25°C° 0 mm 5 mps 760 mmHg 67%
    05:00 +23°C° 0 mm 5 mps 760 mmHg 69%
    06:00 +23°C° 0 mm 5 mps 760 mmHg 71%
    07:00 +25°C° 0.2 mm 5 mps 760 mmHg 67%
    08:00 +27°C° 0.2 mm 5 mps 761 mmHg 62%
    09:00 +28°C° 0.2 mm 5 mps 761 mmHg 57%
    10:00 +30°C° 0 mm 5 mps 761 mmHg 50%
    11:00 +33°C° 0 mm 5 mps 761 mmHg 43%
    12:00 +35°C° 0 mm 5 mps 761 mmHg 37%
    13:00 +35°C° 0 mm 5 mps 761 mmHg 35%
    14:00 +36°C° 0 mm 5 mps 761 mmHg 33%
    15:00 +37°C° 0 mm 4 mps 761 mmHg 31%
    16:00 +36°C° 0 mm 5 mps 761 mmHg 33%
    17:00 +35°C° 0 mm 5 mps 761 mmHg 34%
    18:00 +34°C° 0 mm 5 mps 761 mmHg 36%
    19:00 +32°C° 0.3 mm 5 mps 761 mmHg 43%
    20:00 +29°C° 0.3 mm 5 mps 762 mmHg 50%
    21:00 +27°C° 0.3 mm 5 mps 762 mmHg 57%
    22:00 +26°C° 0 mm 5 mps 763 mmHg 58%
    23:00 +25°C° 0 mm 5 mps 763 mmHg 59%

    Day after tomorrow, 26 August, Monday

    Time Temperature Precipitation Wind Pressure Humidity
    00:00 +23°C° 0 mm 5 mps 763 mmHg 60%
    01:00 +23°C° 0 mm 4 mps 763 mmHg 59%
    02:00 +22°C° 0 mm 4 mps 763 mmHg 57%
    03:00 +22°C° 0 mm 4 mps 764 mmHg 55%
    04:00 +21°C° 0 mm 4 mps 764 mmHg 56%
    05:00 +21°C° 0 mm 4 mps 764 mmHg 57%
    06:00 +21°C° 0 mm 5 mps 764 mmHg 57%
    07:00 +22°C° 0 mm 5 mps 764 mmHg 55%
    08:00 +25°C° 0 mm 5 mps 764 mmHg 52%
    09:00 +26°C° 0 mm 6 mps 765 mmHg 49%
    10:00 +27°C° 0 mm 6 mps 765 mmHg 45%
    11:00 +29°C° 0 mm 6 mps 764 mmHg 42%
    12:00 +30°C° 0 mm 6 mps 764 mmHg 38%
    13:00 +32°C° 0 mm 6 mps 764 mmHg 36%
    14:00 +32°C° 0 mm 5 mps 764 mmHg 35%
    15:00 +32°C° 0 mm 5 mps 764 mmHg 33%
    16:00 +32°C° 0 mm 5 mps 764 mmHg 34%
    17:00 +30°C° 0 mm 5 mps 763 mmHg 34%
    18:00 +30°C° 0 mm 5 mps 763 mmHg 35%
    19:00 +28°C° 0 mm 5 mps 763 mmHg 37%
    20:00 +26°C° 0 mm 4 mps 764 mmHg 39%
    21:00 +25°C° 0 mm 4 mps 764 mmHg 40%
    22:00 +23°C° 0 mm 4 mps 764 mmHg 40%
    23:00 +22°C° 0 mm 4 mps 764 mmHg 39%

    27 August, Tuesday

    Time Temperature Precipitation Wind Pressure Humidity
    00:00 +22°C° 0 mm 4 mps 763 mmHg 39%
    01:00 +21°C° 0 mm 4 mps 763 mmHg 40%
    02:00 +21°C° 0 mm 4 mps 763 mmHg 41%
    03:00 +20°C° 0 mm 4 mps 763 mmHg 42%
    04:00 +20°C° 0 mm 4 mps 763 mmHg 44%
    05:00 +20°C° 0 mm 4 mps 763 mmHg 46%
    06:00 +19°C° 0 mm 4 mps 763 mmHg 48%
    07:00 +21°C° 0 mm 4 mps 763 mmHg 44%
    08:00 +23°C° 0 mm 4 mps 762 mmHg 39%
    09:00 +26°C° 0 mm 4 mps 762 mmHg 34%
    10:00 +28°C° 0 mm 4 mps 762 mmHg 32%
    11:00 +29°C° 0 mm 3 mps 762 mmHg 30%
    12:00 +31°C° 0 mm 3 mps 762 mmHg 28%
    13:00 +31°C° 0 mm 3 mps 761 mmHg 26%
    14:00 +32°C° 0 mm 2 mps 761 mmHg 25%
    15:00 +32°C° 0 mm 2 mps 760 mmHg 23%
    16:00 +31°C° 0 mm 3 mps 760 mmHg 24%
    17:00 +32°C° 0 mm 4 mps 760 mmHg 25%
    18:00 +30°C° 0 mm 4 mps 759 mmHg 25%
    19:00 +28°C° 0 mm 4 mps 760 mmHg 27%
    20:00 +26°C° 0 mm 4 mps 760 mmHg 29%
    21:00 +23°C° 0 mm 4 mps 760 mmHg 31%
    22:00 +24°C° 0 mm 3 mps 760 mmHg 34%
    23:00 +22°C° 0 mm 3 mps 760 mmHg 37%

    28 August, Wednesday

    Time Temperature Precipitation Wind Pressure Humidity
    00:00 +21°C° 0 mm 3 mps 760 mmHg 40%
    01:00 +20°C° 0 mm 3 mps 760 mmHg 42%
    02:00 +20°C° 0 mm 2 mps 759 mmHg 44%
    03:00 +19°C° 0 mm 2 mps 759 mmHg 46%
    04:00 +19°C° 0 mm 2 mps 759 mmHg 48%
    05:00 +18°C° 0 mm 3 mps 759 mmHg 51%
    06:00 +18°C° 0 mm 3 mps 760 mmHg 53%
    07:00 +20°C° 0 mm 3 mps 760 mmHg 53%
    08:00 +22°C° 0 mm 4 mps 760 mmHg 52%
    09:00 +25°C° 0 mm 5 mps 760 mmHg 52%
    10:00 +26°C° 0 mm 5 mps 760 mmHg 48%
    11:00 +27°C° 0 mm 5 mps 760 mmHg 43%
    12:00 +28°C° 0 mm 6 mps 760 mmHg 39%
    13:00 +28°C° 0 mm 6 mps 760 mmHg 36%
    14:00 +28°C° 0 mm 6 mps 760 mmHg 33%
    15:00 +28°C° 0 mm 6 mps 759 mmHg 30%
    16:00 +26°C° 0 mm 6 mps 760 mmHg 27%
    17:00 +24°C° 0 mm 6 mps 760 mmHg 25%
    18:00 +23°C° 0 mm 6 mps 760 mmHg 22%
    19:00 +21°C° 0 mm 6 mps 761 mmHg 26%
    20:00 +19°C° 0 mm 5 mps 761 mmHg 29%
    21:00 +16°C° 0 mm 5 mps 762 mmHg 33%
    22:00 +17°C° 0 mm 4 mps 762 mmHg 36%
    23:00 +15°C° 0 mm 4 mps 763 mmHg 38%

    29 August, Thursday

    Time Temperature Precipitation Wind Pressure Humidity
    00:00 +14°C° 0 mm 4 mps 763 mmHg 41%
    01:00 +13°C° 0 mm 4 mps 763 mmHg 44%
    02:00 +12°C° 0 mm 4 mps 763 mmHg 47%
    03:00 +11°C° 0 mm 3 mps 763 mmHg 50%
    04:00 +10°C° 0 mm 3 mps 763 mmHg 52%
    05:00 +10°C° 0 mm 3 mps 763 mmHg 54%
    06:00 +9°C° 0 mm 3 mps 764 mmHg 57%
    07:00 +11°C° 0 mm 4 mps 764 mmHg 52%
    08:00 +12°C° 0 mm 4 mps 764 mmHg 46%
    09:00 +13°C° 0 mm 4 mps 764 mmHg 41%
    10:00 +15°C° 0 mm 4 mps 764 mmHg 38%
    11:00 +17°C° 0 mm 4 mps 763 mmHg 34%
    12:00 +18°C° 0 mm 4 mps 763 mmHg 30%
    13:00 +19°C° 0 mm 4 mps 763 mmHg 29%
    14:00 +20°C° 0 mm 4 mps 762 mmHg 28%
    15:00 +21°C° 0 mm 4 mps 762 mmHg 28%
    16:00 +21°C° 0 mm 4 mps 762 mmHg 30%
    17:00 +20°C° 0 mm 4 mps 762 mmHg 31%
    18:00 +20°C° 0 mm 4 mps 762 mmHg 33%
    19:00 +18°C° 0 mm 4 mps 762 mmHg 37%
    20:00 +17°C° 0 mm 4 mps 762 mmHg 41%
    21:00 +15°C° 0 mm 4 mps 763 mmHg 45%
    22:00 +14°C° 0 mm 4 mps 763 mmHg 48%
    23:00 +13°C° 0 mm 5 mps 763 mmHg 52%
    Show more